Change the Weather History Date:

Friday, December 27, 2013

  Actual Average Record
Temperature  
Mean Temperature 50 °F -  
Max Temperature 59 °F - - ()
Min Temperature 42 °F - - ()
Degree Days  
Heating Degree Days 14    
Moisture  
Dew Point 39 °F    
Average Humidity 61    
Maximum Humidity 86    
Minimum Humidity 38    
Precipitation  
Precipitation 0.00 in - - ()
Sea Level Pressure  
Sea Level Pressure 29.85 in    
Wind  
Wind Speed 7 mph ()    
Max Wind Speed 16 mph    
Max Gust Speed -    
Visibility 16.0 miles    
Events      
T = Trace of Precipitation, MM = Missing Value Source: Averaged Metar Reports

Daily Weather History Graph

Daily Weather History Graph

Search for Another Location

Airport or City:

Trip Planner

Search our weather history database for the weather conditions in past years. The results will help you decide how hot, cold, wet, or windy it might be!

Date:

Astronomy

Dec. 27, 2013 Rise Set
Actual Time 7:19 AM CET 3:53 PM CET
Civil Twilight 6:44 AM CET 4:28 PM CET
Nautical Twilight 6:05 AM CET 5:07 PM CET
Astronomical Twilight 5:28 AM CET 5:44 PM CET
Moon 1:17 AM CET 12:05 PM CET
Length of Visible Light 9h 44m
Length of Day
8h 34m
Waning Crescent, 31% of the Moon is Illuminated
Dec 27
Waning Crescent
Jan 1
New
Jan 8
First Quarter
Jan 16
Full
Jan 24
Last Quarter

Hourly Weather History & Observations

Time (CET) Temp. Windchill Dew Point Humidity Pressure Visibility Wind Dir Wind Speed Gust Speed Precip Events Conditions
12:00 AM 53 °F - 37 °F 43% 29.72 in - SSE 15.7 mph - -  
1:00 AM 53 °F - 37 °F 42% 29.72 in - SSE 15.7 mph - -  
2:00 AM 52 °F - 36 °F 43% 29.73 in - SSE 13.4 mph - -  
3:00 AM 51 °F - 37 °F 49% 29.74 in - SSE 11.2 mph - -  
4:00 AM 53 °F - 38 °F 46% 29.74 in - SSE 11.2 mph - -  
4:45 AM 51.8 °F - 37.4 °F 58% 29.74 in - SE 6.9 mph - N/A   Clear
5:00 AM 51 °F - 38 °F 51% 29.75 in 31 mi SE 6.7 mph - -   Partly Cloudy
5:45 AM 48.2 °F - 37.4 °F 66% 29.77 in - East 2.3 mph - N/A   Clear
6:00 AM 48 °F - 37 °F 56% 29.78 in 31 mi East 2.2 mph - -   Partly Cloudy
6:45 AM 44.6 °F 43.1 °F 37.4 °F 76% 29.80 in - NNE 3.5 mph - N/A   Clear
7:00 AM 45 °F - 37 °F 65% 29.80 in 25 mi NNE 4.5 mph - -   Partly Cloudy
7:45 AM 42.8 °F 41.1 °F 35.6 °F 76% 29.80 in - NNE 3.5 mph - N/A   Clear
8:00 AM 42 °F - 36 °F 72% 29.82 in 25 mi NNE 4.5 mph - -   Partly Cloudy
9:00 AM 45 °F - 38 °F 70% 29.85 in - NE 2.2 mph - -  
9:45 AM 50.0 °F - 39.2 °F 66% 29.86 in - ENE 4.6 mph - N/A   Clear
10:00 AM 50 °F - 40 °F 59% 29.86 in 22 mi ENE 4.5 mph - -   Partly Cloudy
11:00 AM 54 °F - 40 °F 49% 29.86 in - East 4.5 mph - -  
12:00 PM 59 °F - 41 °F 39% 29.85 in - East 6.7 mph - -  
12:45 PM 59.0 °F - 41.0 °F 51% 29.86 in - East 4.6 mph - N/A   Clear
1:00 PM 59 °F - 41 °F 39% 29.86 in 31 mi East 4.5 mph - -   Partly Cloudy
1:45 PM 59.0 °F - 41.0 °F 51% 29.86 in - East 3.5 mph - N/A   Clear
2:00 PM 59 °F - 40 °F 38% 29.87 in 31 mi East 4.5 mph - -   Partly Cloudy
2:45 PM 57.2 °F - 42.8 °F 59% 29.89 in - Calm Calm - N/A   Clear
3:00 PM 57 °F - 42 °F 46% 29.88 in 25 mi Calm Calm - -   Partly Cloudy
3:45 PM 53.6 °F - 42.8 °F 67% 29.89 in - NNE 6.9 mph - N/A   Clear
4:00 PM 53 °F - 42 °F 58% 29.90 in 22 mi NNE 6.7 mph - -   Partly Cloudy
5:00 PM 49 °F - 40 °F 64% 29.92 in - NNE 4.5 mph - -  
6:00 PM 48 °F - 41 °F 68% 29.93 in - NE 4.5 mph - -  
6:45 PM 44.6 °F 43.1 °F 39.2 °F 81% 29.95 in - NNE 3.5 mph - N/A   Clear
7:00 PM 45 °F - 39 °F 74% 29.95 in 16 mi NNE 4.5 mph - -   Partly Cloudy
8:00 PM 44 °F - 40 °F 81% 29.96 in - North 4.5 mph - -  
9:00 PM 44 °F - 41 °F 86% 29.97 in - WNW 4.5 mph - -  
10:00 PM 44 °F - 41 °F 83% 29.99 in - Calm Calm - -  
11:00 PM 43 °F - 40 °F 85% 30.00 in - Calm Calm - -